Location: Berlise
(49.6641°N, 4.1077°E)
Time: 01:54:36
(UTC+00:00)

NOSS 3-2 (C) - Pass Details

Date: 27 January 2021
Orbit: 788 x 1424 km, 63.4° (Epoch: 25 February)

Event Time Altitude Azimuth Distance (km) Brightness Sun altitude
Rises 05:11:18 0° 200° (SSW) 3,335 6.1 -21.1°
Reaches altitude 10° 05:13:41 10° 195° (SSW) 2,452 5.5 -20.7°
Maximum altitude 05:19:05 49° 121° (ESE) 1,160 4.3 -19.9°
Drops below altitude 10° 05:25:17 10° 49° (NE) 2,808 6.5 -18.9°
Sets 05:28:10 0° 44° (NE) 3,866 7.2 -18.4°
